N6EQ Weather Reports


Display with metric or nautical units.
time (UTC)temp
F
wind
direction
speed
MPH
gust
MPH
rain 1hr
in
rain 24hr
in
rain mn
in
humidity
%
barometer
mb
20240625084508 100 139 7.0 15.0 0.00 0.00 0.00 31 947.3
20240625083016 100 116 8.0 13.0 0.00 0.00 0.00 31 947.4
20240625081507 101 159 9.0 14.0 0.00 0.00 0.00 30 947.4
20240625080005 101 153 9.0 14.0 0.00 0.00 0.00 30 947.5
20240625074606 101 144 11.0 16.0 0.00 0.00 0.00 30 947.4
20240625073059 101 146 7.0 12.0 0.00 0.00 0.00 30 947.4
20240625071556 101 135 7.0 13.0 0.00 0.00 0.00 30 947.4
20240625070045 102 166 9.0 14.0 0.00 0.00 0.00 30 947.3
20240625064546 102 129 9.0 15.0 0.00 0.00 0.00 30 947.3
20240625063055 102 134 10.0 14.0 0.00 0.00 0.00 30 947.3
20240625061543 102 137 9.0 15.0 0.00 0.00 0.00 29 947.3
20240625060043 103 128 9.0 15.0 0.00 0.00 0.00 29 947.2
20240625054542 103 142 10.0 16.0 0.00 0.00 0.00 28 947.1
20240625053043 103 160 9.0 16.0 0.00 0.00 0.00 28 947.1
20240625051541 104 176 9.0 18.0 0.00 0.00 0.00 27 946.9
20240625050041 104 118 9.0 16.0 0.00 0.00 0.00 26 946.7
20240625044552 105 119 10.0 17.0 0.00 0.00 0.00 26 946.5
20240625043047 105 147 7.0 14.0 0.00 0.00 0.00 26 946.3
20240625041559 105 11.0 19.0 0.00 0.00 0.00 25 946.1
20240625040040 106 146 11.0 16.0 0.00 0.00 0.00 25 946.0
20240625034536 106 172 7.0 15.0 0.00 0.00 0.00 24 945.7
20240625033036 106 204 6.0 12.0 0.00 0.00 0.00 24 945.5
20240625031546 107 184 6.0 13.0 0.00 0.00 0.00 23 945.3
20240625030042 107 188 7.0 13.0 0.00 0.00 0.00 23 945.2
20240625024543 108 152 10.0 16.0 0.00 0.00 0.00 23 945.0
20240625023032 108 200 9.0 14.0 0.00 0.00 0.00 22 945.0
20240625021606 109 191 9.0 17.0 0.00 0.00 0.00 22 944.9
20240625020031 109 141 6.0 11.0 0.00 0.00 0.00 22 944.8
20240625014531 109 142 9.0 15.0 0.00 0.00 0.00 22 944.7
20240625013030 110 165 8.0 15.0 0.00 0.00 0.00 22 944.6
20240625011529 110 142 8.0 14.0 0.00 0.00 0.00 22 944.6
20240625010028 110 5.0 15.0 0.00 0.00 0.00 22 944.6
20240625004527 110 209 7.0 12.0 0.00 0.00 0.00 22 944.6
20240625003026 110 160 8.0 15.0 0.00 0.00 0.00 22 944.6
20240625001524 111 139 9.0 18.0 0.00 0.00 0.00 22 944.8
20240625000021 111 179 5.0 18.0 0.00 0.00 0.00 22 945.0
20240624234519 110 147 7.0 13.0 0.00 0.00 0.00 22 945.2
20240624233017 110 160 10.0 17.0 0.00 0.00 0.00 22 945.4
20240624231530 111 262 10.0 14.0 0.00 0.00 0.00 22 945.5
20240624230013 110 125 3.0 14.0 0.00 0.00 0.00 22 945.7
20240624224512 109 245 3.0 14.0 0.00 0.00 0.00 23 946.0
20240624223013 110 217 9.0 15.0 0.00 0.00 0.00 23 946.1
20240624221505 109 153 11.0 17.0 0.00 0.00 0.00 23 946.4
20240624220002 109 182 11.0 18.0 0.00 0.00 0.00 23 946.6
20240624214603 109 242 10.0 18.0 0.00 0.00 0.00 24 946.8
20240624213109 109 242 8.0 14.0 0.00 0.00 0.00 23 947.1
20240624211554 109 220 8.0 15.0 0.00 0.00 0.00 22 947.3
20240624210051 108 8.0 14.0 0.00 0.00 0.00 23 947.5
20240624204549 107 9.0 16.0 0.00 0.00 0.00 23 947.8
20240624203049 107 261 9.0 18.0 0.00 0.00 0.00 24 948.0
20240624201544 108 241 11.0 16.0 0.00 0.00 0.00 23 948.3
20240624200039 106 243 9.0 14.0 0.00 0.00 0.00 24 948.4
20240624194541 106 207 10.0 18.0 0.00 0.00 0.00 25 948.8
20240624193033 106 215 6.0 21.0 0.00 0.00 0.00 26 948.9
20240624191529 105 253 8.0 16.0 0.00 0.00 0.00 26 949.2
20240624190026 105 229 14.0 19.0 0.00 0.00 0.00 26 949.4
20240624184522 104 237 10.0 17.0 0.00 0.00 0.00 26 949.6
20240624183020 104 184 6.0 19.0 0.00 0.00 0.00 27 949.7
20240624181516 103 247 8.0 16.0 0.00 0.00 0.00 28 949.9
20240624180011 103 215 8.0 20.0 0.00 0.00 0.00 29 950.0
20240624174511 103 228 12.0 18.0 0.00 0.00 0.00 29 950.1
20240624173007 102 143 5.0 15.0 0.00 0.00 0.00 29 950.1
20240624171559 101 219 9.0 16.0 0.00 0.00 0.00 30 950.2
20240624170056 100 206 10.0 16.0 0.00 0.00 0.00 31 950.1
20240624164554 100 222 8.0 16.0 0.00 0.00 0.00 32 950.3
20240624163059 99 221 7.0 13.0 0.00 0.00 0.00 33 950.3
20240624161608 99 181 8.0 14.0 0.00 0.00 0.00 34 950.4
20240624160050 98 235 6.0 12.0 0.00 0.00 0.00 35 950.6
20240624154552 97 209 7.0 12.0 0.00 0.00 0.00 36 950.6
20240624153107 97 244 7.0 10.0 0.00 0.00 0.00 36 950.6
20240624151551 96 245 7.0 10.0 0.00 0.00 0.00 38 950.6
20240624150046 95 243 4.0 7.0 0.00 0.00 0.00 39 950.6
20240624144552 95 176 3.0 6.0 0.00 0.00 0.00 39 950.5
20240624143054 95 248 2.0 6.0 0.00 0.00 0.00 39 950.5
20240624141544 94 8 0.0 1.0 0.00 0.00 0.00 40 950.4
20240624140138 93 248 0.0 0.0 0.00 0.00 0.00 41 950.3
20240624134537 92 129 0.0 2.0 0.00 0.00 0.00 42 950.3
20240624133042 92 226 0.0 3.0 0.00 0.00 0.00 42 950.1
20240624131532 92 193 0.0 3.0 0.00 0.00 0.00 42 950.0
20240624130043 91 126 1.0 2.0 0.00 0.00 0.00 43 949.8
20240624124530 91 141 1.0 3.0 0.00 0.00 0.00 43 949.7
20240624123027 91 130 1.0 3.0 0.00 0.00 0.00 43 949.6
20240624121524 91 124 0.0 1.0 0.00 0.00 0.00 42 949.4
20240624120023 92 0.0 3.0 0.00 0.00 0.00 42 949.2
20240624114538 92 226 0.0 2.0 0.00 0.00 0.00 41 949.1
20240624113018 92 198 0.0 2.0 0.00 0.00 0.00 41 949.1
20240624111517 93 243 0.0 0.0 0.00 0.00 0.00 39 949.0
20240624110016 94 245 0.0 2.0 0.00 0.00 0.00 39 949.0
20240624104512 94 246 0.0 3.0 0.00 0.00 0.00 37 949.0
20240624103010 96 239 2.0 6.0 0.00 0.00 0.00 37 948.9
20240624101506 96 214 5.0 11.0 0.00 0.00 0.00 37 948.9
20240624100006 96 162 0.0 5.0 0.00 0.00 0.00 35 948.9
20240624094501 97 113 3.0 8.0 0.00 0.00 0.00 34 948.7
20240624093102 97 147 5.0 10.0 0.00 0.00 0.00 33 948.6
20240624091608 98 149 5.0 12.0 0.00 0.00 0.00 32 948.5
20240624090116 98 113 6.0 14.0 0.00 0.00 0.00 31 948.5